www.pogodaiklimat.ru

Погода и климат >> Архив погоды >> Таиланд >> Канчанабури


ПОГОДА в Канчанабури

  • Прогноз погоды в Канчанабури
  • Монитор погоды в Канчанабури

АРХИВ ПОГОДЫ в Канчанабури

Время (UTC), дата Ветер
(напр.,м/с)
 
Видим.   Явления Облачность Т
(С)
Тd
(С)
f
(%)
Тe
(С)
Тes
(С)
Комфортность P
(гПа)
Po
(гПа)
Тmin
(С)
Tmax
(С)
R
(мм)
R24
(мм)
S
(см)
18 13.09 З 5 12 км 8/3 600 м
[Sc Ac trans Cs]
+28.0 +22.2 71 +37 +37 очень
душно
1008.1 1004.8
21 13.09 З 6 12 км 8/3 600 м
[Sc Cs]
+27.9 +21.6 69 +36 +36 очень
душно
1007.2 1003.9
00 14.09 З 4 12 км 5/3 600 м
[Sc Ac trans Cs]
+27.7 +22.2 72 +36 +36 очень
душно
1007.8 1004.6 +25.4
03 14.09 З 4 12 км 8/3 600 м
[Sc Ac und Cs]
+31.0 +23.0 62 +41 +45 опасность
перегрева
1009.1 1005.9
06 14.09 СВ 2 12 км 8/3 600 м
[Cu med, cong Ac und Cs]
+34.0 +22.7 52 +44 +53 опасность
перегрева
1006.5 1003.2
09 14.09 ЮЗ 5 12 км 8/6 600 м
[Cu Sc Ac und Cs]
+31.1 +23.8 65 +42 +43 опасность
перегрева
1004.5 1001.3
12 14.09 Ю 4 7000 м гроза, ливневой дождь 9/5 600 м
[Cb cap Ac As Cs]
+27.8 +24.8 84 +40 +40 очень
душно
1006.3 1003.0 +35.1 0.0
15 14.09 З 4 10 км {гроза} 8/3 600 м
[Sc Ac und Cs]
+27.2 +24.0 83 +38 +38 очень
душно
1008.6 1005.3 0.0
18 14.09 штиль 0 10 км {гроза} 5/1 600 м
[Sc Ac trans Cs]
+26.3 +24.4 89 +37 +37 очень
душно
1007.6 1004.3 0.0
21 14.09 штиль 0 10 км 3/1 600 м
[Sc Cs]
+26.1 +23.9 88 +36 +36 очень
душно
1006.4 1003.1
00 15.09 штиль 0 10 км слаб. дождь 9/3 600 м
[Sc As op Cs]
+25.2 +24.2 94 +35 +35 очень
душно
1008.0 1004.6 +23.2 21
03 15.09 СЗ 4 12 км 6/3 600 м
[Cu med, cong Ac lent Cs]
+30.5 +25.1 73 +44 +49 опасность
перегрева
1008.9 1005.6
06 15.09 ЮЗ 2 12 км 6/3 600 м
[Cb calv Ac lent Cs]
+33.4 +24.3 59 +46 +57 опасность
перегрева
1006.0 1002.8
09 15.09 Ю 2 12 км 8/3 600 м
[Cb calv Ac lent Cs]
+34.7 +22.5 49 +44 +47 опасность
перегрева
1003.9 1000.7
12 15.09 Ю 4 12 км 8/3 600 м
[Cb calv Ac lent Cs]
+30.4 +24.4 70 +42 +42 опасность
перегрева
1005.2 1001.9 +35.5
15 15.09 СЗ 2 12 км 6/1 600 м
[Sc Ac lent Cs]
+28.3 +24.4 79 +40 +40 очень
душно
1007.8 1004.5
18 15.09 штиль 0 10 км 8/3 600 м
[Sc Ac lent Cs]
+27.0 +24.1 84 +37 +37 очень
душно
1007.4 1004.1
21 15.09 штиль 0 10 км 4/1 600 м
[Sc Cs]
+26.3 +23.5 85 +36 +36 очень
душно
1006.5 1003.2
00 16.09 СЗ 3 12 км 4/3 600 м
[Sc Ac trans Cs]
+26.2 +23.9 87 +36 +36 очень
душно
1007.5 1004.1 +23.7
03 16.09 ЮЗ 5 12 км 3/1 600 м
[Cu hum Ac trans]
+31.9 +23.9 63 +44 +49 опасность
перегрева
1008.4 1005.1
06 16.09 штиль 0 11 км 5/5 600 м
[Cu med, cong]
+33.0 +23.8 59 +45 +58 опасность
перегрева
1006.0 1002.8
09 16.09 ЮВ 4 11 км 9/3 600 м
[Cb calv Cs]
+33.9 +23.1 53 +44 +47 опасность
перегрева
1003.3 1000.1
12 16.09 ЮЗ 5 10 км зарница 3/3 600 м
[Cb cap Cs]
+28.6 +23.8 75 +39 +39 очень
душно
1005.1 1001.9 +34.0
15 16.09 штиль 0 11 км 3/1 600 м
[Cu hum Ac trans Cs]
+27.2 +23.9 82 +37 +37 очень
душно
1007.5 1004.2
18 16.09 штиль 0 12 км 3/0
[Cs]
+26.5 +24.3 88 +37 +37 очень
душно
1007.7 1004.4
21 16.09 штиль 0 12 км 4/0
[Cs]
+26.3 +23.7 86 +36 +36 очень
душно
1006.9 1003.6
00 17.09 ЮЗ 2 12 км 4/1 600 м
[Sc Ac trans Cs]
+26.2 +23.7 86 +36 +36 очень
душно
1007.9 1004.6 +23.9
03 17.09 штиль 0 12 км 4/1 600 м
[Sc Ac trans Cs]
+32.0 +24.5 65 +45 +59 опасность
перегрева
1009.2 1006.0
06 17.09 В 2 12 км 5/3 600 м
[Cb calv Ac lent Cs]
+35.3 +21.2 44 +43 +55 опасность
перегрева
1006.6 1003.4
09 17.09 штиль 0 12 км 8/3 600 м
[Cb calv Ac lent Cs]
+34.9 +21.2 45 +42 +47 опасность
перегрева
1004.5 1001.3
12 17.09 Ю 2 12 км 8/3 600 м
[Sc Ac lent Cs]
+32.1 +23.8 62 +44 +44 опасность
перегрева
1006.8 1003.6 +36.0
15 17.09 СЗ 2 10 км 6/1 600 м
[Sc Ac lent Cs]
+28.5 +24.0 77 +40 +40 очень
душно
1008.7 1005.4
18 17.09 ЮВ 2 10 км 8/1 600 м
[Sc Ac As Cs]
+27.0 +24.1 84 +37 +37 очень
душно
1008.9 1005.6
21 17.09 штиль 0 10 км 8/1 600 м
[Sc Ac und Cs]
+26.7 +24.2 86 +37 +37 очень
душно
1007.8 1004.5
00 18.09 штиль 0 12 км 4/1 600 м
[Sc Ac trans Cs]
+27.0 +23.5 81 +37 +37 очень
душно
1009.0 1005.7 +24.7
03 18.09 З 2 12 км 4/1 600 м
[Sc Ac trans Cs]
+31.5 +24.4 66 +44 +54 опасность
перегрева
1010.2 1007.0
06 18.09 СЗ 7 12 км 8/4 600 м
[Cu Sc Ac und Cs]
+33.8 +23.8 56 +45 +48 опасность
перегрева
1007.4 1004.1
09 18.09 В 5 12 км 5/3 600 м
[Cu med, cong Cs]
+35.8 +21.8 44 +44 +46 опасность
перегрева
1005.1 1001.9
12 18.09 штиль 0 12 км 5/3 600 м
[Cu med, cong Ac trans Cs]
+32.1 +24.6 65 +45 +45 опасность
перегрева
1007.0 1003.8 +36.1
15 18.09 СЗ 3 10 км 8/3 600 м
[Sc Cs]
+30.1 +25.1 75 +44 +44 опасность
перегрева
1009.3 1006.1
18 18.09 штиль 0 10 км в посл. час дождь 9/4 600 м
[Sc Ac As Cs]
+24.5 +23.3 93 +33 +33 очень
душно
1008.8 1005.5 33
21 18.09 штиль 0 10 км 9/4 600 м
[Sc Ac As Cs]
+24.7 +23.7 94 +34 +34 очень
душно
1009.2 1005.9
00 19.09 штиль 0 8000 м дымка {дождь} 9/3 600 м
[Sc Ac As Cs]
+25.1 +23.9 93 +34 +35 очень
душно
1009.6 1006.3 +22.4 0.1
03 19.09 штиль 0 8000 м дымка 9/3 600 м
[Sc Ac trans Cs]
+27.6 +24.3 82 +39 +46 очень
душно
1011.3 1008.0
06 19.09 С 5 9000 м дымка 8/5 600 м
[Cu med, cong Ac trans Cs]
+32.4 +24.9 65 +46 +50 опасность
перегрева
1008.6 1005.3
09 19.09 штиль 0 9000 м дымка 8/3 600 м
[Cb calv Cs]
+31.4 +25.2 70 +45 +51 опасность
перегрева
1006.0 1002.8
12 19.09 ЮЗ 5 9000 м зарница 4/1 600 м
[Cb cap Ac trans Cs]
+28.3 +24.1 78 +39 +39 очень
душно
1008.2 1004.9 +32.4
15 19.09 штиль 0 8000 м дымка 3/1 600 м
[Cu med, cong Ac trans Cs]
+27.3 +24.1 83 +38 +38 очень
душно
1010.5 1007.2
18 19.09 штиль 0 8000 м дымка 6/3 600 м
[Sc Cs]
+26.5 +23.9 86 +37 +37 очень
душно
1009.7 1006.4
21 19.09 штиль 0 7000 м в посл. час дождь 8/3 600 м
[Sc Ac trans Cs]
+25.9 +24.4 91 +36 +36 очень
душно
1008.1 1004.8 0.3
00 20.09 штиль 0 8000 м дымка {дождь} 8/3 600 м
[Sc Ac As Cs]
+25.7 +24.4 93 +36 +36 очень
душно
1009.6 1006.2 +23.5 0.3
03 20.09 В 2 8000 м дымка 8/3 600 м
[Sc Ac As Cs]
+29.0 +25.0 79 +42 +48 опасность
перегрева
1010.8 1007.5
06 20.09 С 2 9000 м дымка 8/3 600 м
[Cu med, cong Ac As Cs]
+31.7 +25.0 68 +45 +54 опасность
перегрева
1008.1 1004.8
09 20.09 З 4 9000 м дымка 8/3 600 м
[Cu med, cong Ac As Cs]
+29.7 +24.4 73 +42 +44 опасность
перегрева
1005.4 1002.1
12 20.09 штиль 0 8000 м дымка 8/3 600 м
[Sc Ac As Cs]
+28.2 +24.0 78 +39 +39 очень
душно
1007.5 1004.2 +33.4
15 20.09 Ю 2 6000 м слаб. дождь 10/3 600 м
[Sc As op]
+27.0 +25.0 89 +39 +39 очень
душно
1009.9 1006.6 0.0

 

Местоположение метеостанции Канчанабури (Таиланд): широта 14.02 долгота 99.53 высота над уровнем моря 29 м.

В архиве по умолчанию представлена погода в Канчанабури за последнюю неделю. Архивные данные за месяц целиком и за предыдущие месяцы, начиная с января 2011 года, Вы можете получить, выбрав интересующий диапазон дат из раскрывающегося списка и нажав кнопку "Ввод!".


*Определитесь, кто Вы:
робот инопланетянин человек

Внимание! Время в таблицах - всемирное. Для получения местного времени необходимо прибавить поправку, которая равна 7 ч.

Смотрите также архив погоды в соседних городах и на ближайших метеорологических станциях:

Погода в Накхонпатхоме (Таиланд) (47 км)
Погода в У-Тхонг Агромете (Таиланд) (48 км)
Погода в Суфанбури (Таиланд) (82 км)
Погода в Самутсонгкхраме (Таиланд) (87 км)
Погода в Пхетчабури (Таиланд) (112 км)
Погода в Бангкоке (Таиланд) (116 км)
Погода в Дон Муанг (Таиланд) (116 км)
Погода в Бангкоке 2 (Таиланд) (118 км)
Погода в Патхумтхани (Таиланд) (118 км)
Погода в Бангна Агромете (Таиланд) (124 км)

Пояснения к столбцам:

Ветер - указаны скорость ветра в м/с - средняя за 10 мин, порывы в срок и между сроками (в фигурных скобках) и направление, откуда дует ветер: С - северный, СВ - северо-восточный, В - восточный, ЮВ - юго-восточный, Ю - южный, ЮЗ - юго-западный, З - западный, СЗ - северо-западный.
Видимость - горизонтальная дальность видимости в метрах или километрах. При видимости от 1 до 10 км при отсутствии осадков обычно наблюдается дымка, при ухудшении видимости до 1 км и менее - туман. В сухую погоду видимость может ухудшаться дымом, пылью или мглою.
Явления - указаны атмосферные явления, наблюдавшиеся в срок или в последний час перед сроком; фигурными скобками обозначены явления, наблюдавшиеся между сроками (за 1-3 часа до срока); квадратными скобками обозначены град или гололедные отложения с указанием их диаметра в мм.
Облачность - указаны через наклонную черту общая и нижняя облачность в баллах и высота нижней границы облаков в метрах; квадратными скобками обозначены формы облаков: Ci - перистые, Cs - перисто-слоистые, Cc - перисто-кучевые, Ac - высококучевые, As - высокослоистые, Sc - слоисто-кучевые, Ns - слоисто-дождевые, Cu - кучевые, Cb - кучево-дождевые. Подробнее классификацию облаков см. в Атласе облаков (PDF).
T - Температура воздуха - температура, измеренная на высоте 2 м над землей.
Td - Температура точки росы - температура, при понижении до которой содержащийся в воздухе водяной пар достигнет насыщения.
f - Относительная влажность воздуха - влажноcть воздуха, измеренная на высоте 2 м над землей.
Te - Эффективная температура - температура, которую ощущает одетый по сезону человек в тени. Характеристика душности погоды. При расчете учитывается влияние влажности воздуха и скорости ветра на теплоощущения человека.
Tes - Эффективная температура на солнце - температура, которую ощущает человек, с поправкой на солнечный нагрев. Характеристика знойности погоды. Зависит от высоты солнца над горизонтом, облачности и скорости ветра. Ночью, в пасмурную погоду, а также при ветре 12 м/с и более поправка равна нулю.
P - Атмосферное давление - приведенное к уровню моря атмосферное давление.
Po - Атмосферное давление - измеренное на уровне метеостанции атмосферное давление.
Tmin - Минимальная температура - минимум температуры воздуха на высоте 2 м над землей.
Tmax - Максимальная температура - максимум температуры воздуха на высоте 2 м над землей.
R - Количество осадков - Количество выпавших осадков за период времени, мм. При наведении курсора мыши на число - период времени, за который выпало указанное количество осадков.
R24 - Количество осадков - Количество выпавших осадков за 24 часа, мм.
S - Снежный покров - Высота снежного покрова, см. При наведении курсора мыши на число - состояние снежного покрова и степень покрытия местности в баллах.